Regional Weather Roundup
Issued by NWS Wakefield, VA

Home | Current Version | Previous Version | Text Only | Print | Product List | Glossary Off
Versions: 1 2 3 4 5 6 7 8 9 10 11 12 13 14 15 16 17 18 19 20 21 22 23 24 25 26 27 28 29 30 31 32 33 34 35 36 37 38 39 40 41 42 43 44 45 46 47 48 49 50

000
ASUS41 KAKQ 200610
RWRAKQ

REGIONAL WEATHER ROUNDUP
NATIONAL WEATHER SERVICE WAKEFIELD VA
200 AM EDT WED AUG 20 2014

Note: "fair" indicates few or no clouds below 12,000 feet with no
significant weather and/or obstructions to visibility. * = Denotes
station may not report precipitation (e.g., rain,snow,etc.),
thunder or fog.

VAZ042-051-052>054-056-200700-
NORTHERN VIRGINIA

CITY           SKY/WX    TMP DP  RH WIND       PRES   REMARKS
WASH NATIONAL  MOCLDY    73  64  73 CALM      29.93F
DULLES         LGT RAIN  73  69  87 S5        29.93F
FORT BELVOIR   FAIR      70  68  94 SE1       29.93F
QUANTICO       MOCLDY    75  70  84 S6        29.93F
FREDERICKSBRG* FAIR      71  71 100 CALM      29.92S
STAFFORD*      FAIR      69  69 100 CALM      29.97S FOG
WARRENTON      MOCLDY    71  71 100 CALM      29.92F FOG
CULPEPER*      MOCLDY   N/A N/A N/A CALM      29.93F HAZE
MANASSAS*      CLOUDY    72  70  94 CALM      29.93S
LEESBURG*      CLOUDY    72  70  94 CALM      29.94S
WINCHESTER     FAIR      70  68  94 CALM      29.93S
$$

VAZ048-049-060>072-079>083-200700-
CENTRAL AND SOUTH CENTRAL VIRGINIA...AND NORTH CENTRAL NORTH CAROLINA

CITY           SKY/WX    TMP DP  RH WIND       PRES   REMARKS
RICHMOND       FAIR      73  70  90 CALM      29.90F
CHESTERFIELD*  FAIR     N/A N/A N/A CALM      29.91F
HANOVER        FOG       69  69 100 CALM      29.93S VSB 1/4
TAPPAHANNOCK*  FAIR      68  65  92 CALM      29.92S FOG
CHARLOTTSVILLE CLOUDY    70  69  97 CALM      29.93F
ORANGE*        FAIR      70  68  94 CALM      29.94F FOG
LOUISA*        CLOUDY    72  70  94 CALM      29.92F FOG
FARMVILLE*     MOCLDY    72  70  94 CALM      29.90S FOG
SOUTH HILL*    FAIR      72  72 100 CALM      29.95S FOG
ROANOKE RAPIDS FAIR      70  70 100 N3        29.88F FOG
RALEIGH        FAIR      74  70  87 CALM      29.89F
$$

VAZ088>098-200700-
SOUTHEAST VIRGINIA

CITY           SKY/WX    TMP DP  RH WIND       PRES   REMARKS
NORFOLK        FAIR      76  71  85 NE8       29.87F
VIRGINIA BEACH FAIR      75  71  87 NE8       29.86F
NORFOLK NAVAL  CLOUDY    76  71  85 NE7       29.89F
WEST POINT*      N/A     71  69  92 CALM      29.91F
NEWPORT NEWS   FAIR      74  69  85 CALM      29.88F
LANGLEY AFB    FAIR      74  74 100 NE7       29.87F
FORT EUSTIS    FAIR      72 N/A N/A NE2       29.87F
WILLIAMSBURG*  FAIR      72  72 100 CALM      29.90F
FRANKLIN*      FAIR      72  72 100 CALM      29.88F
WAKEFIELD      FAIR      72  69  90 CALM      29.88F FOG
$$

VAZ020-022-025-037-045-200700-
WESTERN AND SOUTHWEST VIRGINIA

CITY           SKY/WX    TMP DP  RH WIND       PRES   REMARKS
STAUNTON*      CLOUDY    69  67  94 CALM      29.97F FOG
HOT SPRINGS VA NOT AVBL
LYNCHBURG      CLOUDY    70  69  97 CALM      29.95S
DANVILLE       FAIR      70  68  93 CALM      29.91S
MARTINSVILLE   MOCLDY    71  71  99 CALM      29.96S
ROANOKE        FAIR      65  64  97 CALM      29.98S
BLACKSBURG     FOG       64  64 100 CALM      30.02S VSB 3/4
DUBLIN*        FOG       67  67 100 SW5       30.01S VSB 1/4
MARION*        FOG       65  64  96 CALM      30.05R VSB 1/4
HILLSVILLE*    FAIR      65  65  98 CALM      30.03R FOG
RICHLANDS*     FAIR      71  68  91 CALM      30.03R
WISE*          FAIR      66  66 100 S5        30.05R FOG
ABINGDON*      FAIR      67  67 100 CALM      30.02R FOG
$$

MDZ021>025-VAZ099-100-200700-
SOUTHERN MARYLAND AND THE DELMARVA PENINSULA

CITY           SKY/WX    TMP DP  RH WIND       PRES   REMARKS
PATUXENT RIVER FAIR      72  66  81 SE5       29.91S
BAY BRIDGE APT   N/A     68  64  88 CALM      29.93S
LEONARDTOWN    FAIR      64  61  88 CALM      29.93F
DOVER          MOCLDY    69  66  89 CALM      29.91S
GEORGETOWN     FAIR      66  63  90 VRB6      29.93R
EASTON         FAIR      67  67 100 CALM      29.96S
CAMBRIDGE      FAIR      63  61  94 CALM      29.92S
SALISBURY      FAIR      65  60  84 CALM      29.91F
OCEAN CITY     FAIR      73  65  75 E8        29.91S
WALLOPS ISLAND FAIR      73  66  78 E9        29.90F
ACCOMACK*      FOG       64  63  94 CALM      29.89F VSB 3/4
$$

NCZ012>017-030>032-200700-
EASTERN NORTH CAROLINA

CITY           SKY/WX    TMP DP  RH WIND       PRES   REMARKS
ELIZABETH CITY FAIR      74  73  97 N8        29.86F FOG
AHOSKIE*       FAIR      70  69  95 CALM      29.88F
EDENTON*       FAIR      72  71  97 N5        29.86F FOG
CURRITUCK*     RAIN      76  73  88 N6        29.87F
KILL DEVIL HLS FAIR      75  73  92 CALM      29.84F FOG
MANTEO         FAIR      73  72  94 CALM      29.85F
CAPE HATTERAS  FAIR      75  74  96 NE3       29.85S
GOLDSBORO      FAIR      76  75  98 N6        29.86S
WASHINGTON     FAIR      73  71  96 N3        29.87F
GREENVILLE     FAIR      72  72 100 N3        29.90S
NEW BERN       FAIR      77  73  87 N3        29.87S
WILMINGTON     FAIR      75  73  93 CALM      29.87R
$$

VAZ048-200700-
ELSEWHERE

CITY           SKY/WX    TMP DP  RH WIND       PRES   REMARKS
HARRISBURG PA  MOCLDY    74  65  73 S3        29.92R
BALTIMORE      FAIR      67  64  90 CALM      29.93S
ANNAPOLIS      FAIR      73  62  68 S5        29.92S
ANDREWS AFB    FAIR      68  67  96 SE1       29.93F
WILMINGTON DE  CLOUDY    72  66  81 CALM      29.94F
PHILADELPHIA   CLOUDY    73  64  73 SW3       29.94S
WILDWOOD NJ*   FAIR      66  61  82 CALM      29.93S
ATLANTIC CITY  MOCLDY    64  62  93 CALM      29.93S
HENDERSON NC   FAIR      71  69  95 CALM      29.90F FOG
GREENSBORO     MOCLDY    73  71  93 CALM      29.91S
ROCKY MOUNT    FAIR      72  70  93 N5        29.89S
FAYETTEVILLE   FAIR      74  72  93 W3        29.87F
CHARLOTTE      FAIR      70  69  97 CALM      29.92S
$$

VAZ100-200700-
MARINE

STATION/POSITION TIME  TEMP    WIND        PRES    WAVE   SWELL
                       AIR SEA DIR/SP/G            HT/PER HT/PER
                 (UTC) (F)     (DEG/KT/KT) (MB)    (FT/S) (FT/S)
44066 TX TWR #4  0600   72 73   70/ 10/ 12 1013.1F   2/10   2/10
CAPE MAY NJ      0600   70 78   70/  1/  2 1012.6S
LEWES DE         0600   72 74  120/  4/  5 1012.7S
15NM E FENWICK I 0600   74 75              1012.7F   4/ 6
OCEAN-CITY-INLET 0600   74 75   80/  6/ 10 1012.3F
WACHAPREAGUE VA  0600   72 78  360/  5/  7 1012.0F
THOMAS POINT MD  0600   74 77  130/  6/  6 1013.9S
GOOSES REEF MD   0600   74     150/  6/  8 1013.6F
COVE POINT MD    0600   74     140/  7/  9 1012.8F
SOLOMONS ISLAND  0600      79                N/A
BISHOPS HEAD MD  0600   73 77   70/  5/  7 1012.3F
PINEY POINT MD   0600           40/  4/  4   N/A
POTOMAC MD       0600   76     110/  8/ 10 1012.0S
CAMBRIDGE MD     0600   71 78  140/  1/  3 1012.9S
LEWISETTA VA     0600   75 79  140/  5/  6 1012.3R
RAPPAHANNOCK LGT 0600           40/  8/  8 1012.6F
STINGRAY PT      0600   76      90/  8/ 10 1012.9F
YORK RVR RNG VA  0600   76      70/  8/  9 1011.5F
YORKTOWN VA      0600   75 79   30/  7/  8 1011.7F
JAMESTOWN VA     0600   71      70/  4/  6   N/A
DOMINION TERM VA 0600   76      50/  3/  5 1011.9F
KIPTOPEKE VA     0600      81   70/  3/  5   N/A
CHES BAY BRIDGE  0600   76 78   50/ 12/ 13 1011.0F
CAPE HENRY VA    0600   76      50/ 11/ 12 1010.5F
CHESAPEAKE LGHT  0500   76      50/ 13/ 14 1012.6R
WILLOUBY STN VA  0600   76      40/  8/ 10 1010.5F
S CRANEY ISL VA  0600           30/  8/ 10 1011.3F
CAPE HENRY BUOY  0600      77                N/A     4/ 5
1ST LANDING BUOY 0600   77      60/ 10/ 12 1011.4F
CAPE CHARLES BUO 0600      76                N/A     4/ 5   2/ 6
OFFSHORE WE BUOY 0600      76                N/A     4/ 6   2/ 6
64NM E OF VA BCH 0600   77 78   20/  4/  8 1010.6F   3/ 5   3/ 5
DUCK PIER NC     0600   77 79   40/  5/  6 1010.3F
44056 DUCK FRF   0600                        N/A     2/ 5
OREGON INLET NC  0600   76 80   10/  4/  5 1010.6F
HATTERAS NC      0600   80 82  290/  1/  2 1011.2S
DIAMOND SHLS NC  0600   79     290/  4/  6 1010.7R   3/ 7   2/ 7
CAPE LOOKOUT NC  0500   80     320/  5/  6 1010.6F
$$



USA.gov is the U.S. government's official web portal to all federal, state and local government web resources and services.